Regional Weather Roundup
Issued by NWS

Home | Current Version | Previous Version | Text Only | Print | Product List | Glossary On
Versions: 1 2 3 4 5 6 7 8 9 10 11 12 13 14 15 16 17 18 19 20 21 22 23 24 25 26 27 28 29 30 31 32 33 34 35 36 37 38 39 40 41 42 43 44 45 46 47 48 49 50
000
ASUS43 KLMK 161402
RWRKY
KENTUCKY REGIONAL WEATHER ROUNDUP
NATIONAL WEATHER SERVICE LOUISVILLE KY
1000 AM EDT WED AUG 16 2017

NOTE "FAIR" INDICATES FEW OR NO CLOUDS BELOW 12,000 FEET
WITH NO SIGNIFICANT WEATHER AND/OR OBSTRUCTIONS TO VISIBILITY.

KYZ001>023-026-027-061>063-070>075-161500-
WESTERN AND SOUTH CENTRAL KENTUCKY

CITY           SKY/WX    TMP DP  RH WIND       PRES   REMARKS
PADUCAH        MOSUNNY   80  74  81 S8        29.99R
HENDERSON      MOSUNNY   79  74  84 S7        30.02R
OWENSBORO      SUNNY     79  74  84 S7        30.03R
HOPKINSVILLE   SUNNY     80  74  82 S7        30.02F
BOWLING GREEN  PTSUNNY   79  73  82 SW8       30.05S
GLASGOW        CLOUDY    80  71  72 S6        30.06S
$$

KYZ024-025-028>034-038-045-046-053-161500-
NORTH CENTRAL KENTUCKY

CITY           SKY/WX    TMP DP  RH WIND       PRES   REMARKS
LOUISVILLE/SDF MOSUNNY   81  71  71 VRB5      30.03S
LOUISVILLE/LOU MOSUNNY   80  74  81 S6        30.03F
FORT KNOX      PTSUNNY   80  71  73 S6        30.04R
$$

KYZ035>037-039>044-047>052-055>060-089>105-161500-
NORTHEAST KENTUCKY

CITY           SKY/WX    TMP DP  RH WIND       PRES   REMARKS
LEXINGTON      PTSUNNY   79  73  82 S5        30.07S
COVINGTON      MOSUNNY   81  70  69 VRB7      30.05R
FRANKFORT      MOSUNNY   79  72  79 S3        30.04S
$$

KYZ054-064>069-076>088-106>120-161500-
SOUTHEAST KENTUCKY

CITY           SKY/WX    TMP DP  RH WIND       PRES   REMARKS
JACKSON        SUNNY     73  71  93 CALM      30.10S
LONDON         CLOUDY    72  70  93 S3        30.09S
SOMERSET       NOT AVBL
MIDDLESBORO    CLOUDY    73  71  95 CALM      30.12S
MONTICELLO     CLOUDY    76  73  91 NE8       30.10S
$$




USA.gov is the U.S. government's official web portal to all federal, state and local government web resources and services.